This demonstration page uses our WeatherBlox Daily Observations layout. Learn more.

Left ArrowRight Arrow

Hourly Observations for May 23, 2022

Temp ( °F °C ) Dew Point ( °F °C ) Humidity (%) Winds ( mph kmh ) Pressure ( in mb ) Visibility ( mi km ) Precip ( " mm )
12:54 am 00:54 Clear 60 15.6 34 1.1 38 38 ESE 12 19 30.31 1026 10 16 0.00 0.00
1:54 am 01:54 Clear 59 15 34 1.1 39 39 SE 10 17 30.31 1026 10 16 0.00 0.00
2:54 am 02:54 Clear 57 13.9 36 2.2 45 45 ESE 6 9 30.28 1026 10 16 0.00 0.00
3:54 am 03:54 Clear 57 13.9 37 2.8 47 47 SSE 7 11 30.27 1025 10 16 0.00 0.00
4:54 am 04:54 Clear 55 12.8 38 3.3 53 53 SE 3 6 30.27 1025 10 16 0.00 0.00
5:54 am 05:54 Clear 54 12.2 38 3.3 55 55 SE 3 6 30.27 1025 10 16 0.00 0.00
6:54 am 06:54 Mostly Cloudy 55 12.8 39 3.9 55 55 ESE 5 7 30.27 1025 10 16 0.00 0.00
7:54 am 07:54 Cloudy 55 12.8 41 5 59 59 SSE 5 7 30.27 1025 10 16 0.00 0.00
10:54 am 10:54 Mostly Sunny 60 15.6 42 5.6 52 52 E 7 11 30.24 1024 10 16 0.00 0.00
11:54 am 11:54 Mostly Cloudy 63 17.2 43 6.1 48 48 E 9 15 30.22 1023 10 16 0.00 0.00
12:54 pm 12:54 Mostly Sunny 64 17.8 40 4.4 41 41 SE 12 19 30.20 1023 10 16 0.00 0.00
1:54 pm 13:54 Cloudy 63 17.2 40 4.4 43 43 SSE 14 22 30.19 1022 10 16 0.00 0.00
2:54 pm 14:54 Mostly Cloudy 64 17.8 40 4.4 41 41 SE 9 15 30.17 1022 10 16 0.00 0.00
3:54 pm 15:54 Cloudy 63 17.2 40 4.4 43 43 SE 13 20 30.16 1021 10 16 0.00 0.00
4:54 pm 16:54 Cloudy 63 17.2 37 2.8 38 38 ESE 15 24 30.14 1021 10 16 0.00 0.00
5:54 pm 17:54 Cloudy 62 16.7 35 1.7 37 37 E 13 20 30.13 1020 10 16 0.00 0.00
6:54 pm 18:54 Cloudy 62 16.7 36 2.2 38 38 E 12 19 30.13 1020 10 16 0.00 0.00
7:54 pm 19:54 Cloudy 61 16.1 38 3.3 43 43 E 7 11 30.15 1021 10 16 0.00 0.00
8:54 pm 20:54 Cloudy 60 15.6 38 3.3 44 44 E 8 13 30.14 1021 10 16 0.00 0.00
9:54 pm 21:54 Cloudy 60 15.6 38 3.3 44 44 E 8 13 30.13 1020 10 16 0.00 0.00
10:54 pm 22:54 Cloudy 59 15 38 3.3 46 46 E 7 11 30.15 1021 10 16 0.00 0.00
11:54 pm 23:54 Cloudy 58 14.4 38 3.3 48 48 E 9 15 30.14 1021 10 16 0.00 0.00

Powered by AerisWeather